Погода в Бурунском

Россия / Чеченская Республика     43°51′33″N   45°46′40″E
темп.,
°C
ветер,
м/с
пор.,
м/с
влажн.,
%
обл.,
%
осадки,
мм/ч
давл.,
гПа
погр.,
м
4 марта, чт
чт400:00+3з5875100 0.0 1025720
03:00+2з61079100 0.1 1026453
06:00+1з598554 0.0 1027314
09:00+3з576427 0.0 1027842
12:00+6зсз45460 0.0 10251128
15:00+8зсз34360 0.0 10241323
18:00+6ю22410 0.0 102427
21:00+5ююв22460 0.0 102422
5 марта, пт
пт500:00+3юв22580 0.0 102322
03:00+1вюв11750 0.0 102222
06:00+1юв11780 0.0 102122
09:00+5в22570 0.0 1021239
12:00+8в33380 0.0 1019687
15:00+11в22310 0.0 1018811
18:00+9в12410 0.0 101922
21:00+6юв34560 0.0 102078
6 марта, сб
сб600:00+4юв34842 0.0 102062
03:00+3юв23851 0.0 101922
06:00+3ююв23800 0.0 101922
09:00+8ююз12480 0.0 1018130
12:00+14юв232819 0.0 1016418
15:00+17вюв452126 0.0 1014727
18:00+13в233139 0.0 101530
21:00+10св344153 0.0 101469
7 марта, вс
вс700:00+7ссв334996 0.0 101454
03:00+7ссз7136898 0.0 1015526
06:00+3ссз91483100 0.4 1019785
09:00+2сз71084100 0.8 1022855
12:00+5сз81047100 0.1 10231678
15:00+5сз683785 0.1 10231483
18:00+3сз45400 0.0 10241102
21:00+1ссз24500 0.0 1025163
8 марта, пн
пн800:000с22560 0.0 102326
03:00−1св11570 0.0 102321
06:00−1ю015623 0.0 102321
09:00+2ююз114622 0.0 1022429
12:00+4всв22330 0.0 10191095
15:00+6св22300 0.0 10181436
18:00+5ссв123765 0.0 101976
21:00+3вюв236251 0.0 102049